Content
SEND FEEDBACK

Daily
Averages
Monthly
Summary
United States of America

NEW YORK - CENTRAL PARK, NEW YORK


Home > North America > United States > New York
Elevation: 14 feet     Latitude: 40 47N     Longitude: 073 58W

WEATHER
 
SELECT A DAY
Number of Records: 148,305;   Date Range: 11/1/95 - 9/16/14
 
SHARE

PRINT THIS DATA

[ ← Previous Day ]
WEATHER ALMANAC - JANUARY 8, 2013
[ Next Day → ]
[ °C ]   °F
Weather ElementAverageHighLow
Temperature41.5 °F46.9 °F (1:51 pm)36 °F (4:51 am)
Dewpoint27.3 °F30 °F (5:51 pm)24.1 °F (1:51 am)
Humidity57.5 %70 % (8:51 am)48 % (4:51 pm)
Barometer30.37 in30.43 in (8:51 am)30.34 in (1:51 pm)
Wind Speed6.5 mph10.4 mph (5:51 am)
Wind Gust25.3 mph (7:51 am)
Weather ElementAverage
Visibility9.2 mi
Wind DirectionESE (120 °)

Weather ElementTotal
Precipitation---
Heating Degree Days23.6 (Base 65)
Averaged from 23 records on January 8, 2013
WEATHER CONDITIONS BREAKOUT
WIND DIRECTION BREAKOUT
WEATHER BY HOUR - JANUARY 8, 2013
[ °C ]   °F
Local TimeTemperatureDewpointHumidityBarometerVisibilityWind DirectionWind SpeedGust SpeedPrecipitationEventsConditions
1:51 AM37.0 °F24.1 °F59 %30.38 in10.0 miVariable3.5 mphClear
2:51 AM37.0 °F24.1 °F59 %30.37 in10.0 miWest (260°)9.2 mphClear
3:51 AM37.0 °F24.1 °F59 %30.35 in9.0 miWSW (250°)5.8 mphClear
4:51 AM36.0 °F25.0 °F64 %30.36 in9.0 miWest (260°)9.2 mphClear
5:51 AM36.0 °F25.0 °F64 %30.37 in9.0 miWest (260°)10.4 mphClear
6:51 AM36.0 °F25.0 °F64 %30.38 in9.0 miVariable4.6 mph18.4 mphClear
7:51 AM36.0 °F25.0 °F64 %30.41 in8.0 miVariable4.6 mph25.3 mphClear
8:51 AM36.0 °F27.0 °F70 %30.43 in7.0 miWest (260°)5.8 mphClear
9:51 AM39.0 °F26.1 °F60 %30.42 in8.0 miVariable6.9 mphClear
10:51 AM41.0 °F27.0 °F57 %30.40 in8.0 miWest (260°)5.8 mph18.4 mphClear
11:51 AM45.0 °F28.9 °F53 %30.35 in8.0 miVariable4.6 mphClear
12:51 PM46.0 °F28.9 °F51 %30.35 in9.0 miVariable5.8 mphClear
1:51 PM46.9 °F28.9 °F50 %30.34 in10.0 miWSW (240°)9.2 mph16.1 mphClear
2:51 PM46.9 °F28.9 °F50 %30.35 in10.0 miWSW (250°)6.9 mphClear
3:51 PM46.9 °F28.9 °F50 %30.35 in10.0 miVariable5.8 mphClear
4:51 PM46.9 °F28.0 °F48 %30.35 in10.0 miSW (230°)8.1 mph17.3 mphClear
5:51 PM46.0 °F30.0 °F54 %30.36 in10.0 miNorthClear
6:51 PM44.1 °F30.0 °F58 %30.38 in10.0 miWSW (240°)9.2 mphClear
7:51 PM44.1 °F30.0 °F58 %30.37 in10.0 miVariable6.9 mphClear
8:51 PM44.1 °F28.9 °F55 %30.38 in10.0 miWSW (250°)8.1 mphClear
9:51 PM43.0 °F28.9 °F58 %30.37 in9.0 miVariable4.6 mphClear
10:51 PM42.1 °F28.0 °F58 %30.39 in9.0 miVariable4.6 mphClear
11:51 PM41.0 °F28.0 °F60 %30.38 in9.0 miVariable3.5 mphClear
Hourly data recorded from KNYC, located miles away from New York - Central Park, New York







STORIES FROM OUR PARTNERS